STARLINK-1785 (47124 NORAD) Tracking and Keplerian Element Data

This shows tracking and keplerian element data for the satellite.

Feedback or suggestion? Click here.




ElementValue
Catalog47124
NameSTARLINK-1785
Epoch Orbit175
Epoch Day62.91667824
Epoch Year2021
RAAN249.7489
Inclination53.0531
Eccentricity0.0002587
Argument of Perigee95.5871
Mean Anonmoly19.9933
Mean Motion15.06369515
Decay Rate0.00032321
L11 47124U 20088C 21062.91667824 .00032321 00000-0 21805-2 0 9999
L22 47124 53.0531 249.7489 0002587 95.5871 19.9933 15.06369515 1755

Live tracking and technical data element details for STARLINK-1785 (NORAD 47124). STARLINK-1785 can be tracked NOW for your location showing map with azimuth and elevation plus other details from your city location.

Track the satellite on the map from your city or location and see movement details for azimuth, elevation, latitude, longitude, range, height, and movement on the map or in text.







IsCatalogInMostPopularTable: catalog: 47124, numindb: 31
Update: records affected: 1



GetName: 47124 STARLINK-1785

Hit Count: updated at: Fri, 05 Mar 2021 07:05:31 GMT